Year,Month,Day,Hour,Minute,Value (Times are PST for temperature in C)
2016,08,14,00,00,19.30
2016,08,14,00,01,19.20
2016,08,14,00,02,19.20
2016,08,14,00,03,19.20
2016,08,14,00,04,19.20
2016,08,14,00,05,19.20
2016,08,14,00,06,19.20
2016,08,14,00,07,19.20
2016,08,14,00,08,19.20
2016,08,14,00,09,19.20
2016,08,14,00,10,19.20
2016,08,14,00,11,19.20
2016,08,14,00,12,19.20
2016,08,14,00,13,19.20
2016,08,14,00,14,19.20
2016,08,14,00,15,19.20
2016,08,14,00,16,19.20
2016,08,14,00,17,19.20
2016,08,14,00,18,19.20
2016,08,14,00,19,19.20
2016,08,14,00,20,19.20
2016,08,14,00,21,19.10
2016,08,14,00,22,19.10
2016,08,14,00,23,19.10
2016,08,14,00,24,19.10
2016,08,14,00,25,19.10
2016,08,14,00,26,19.10
2016,08,14,00,27,19.10
2016,08,14,00,28,19.00
2016,08,14,00,29,19.00
2016,08,14,00,30,19.00
2016,08,14,00,31,19.00
2016,08,14,00,32,19.00
2016,08,14,00,33,19.00
2016,08,14,00,34,18.90
2016,08,14,00,35,18.90
2016,08,14,00,36,18.90
2016,08,14,00,37,18.90
2016,08,14,00,38,18.90
2016,08,14,00,39,18.90
2016,08,14,00,40,18.80
2016,08,14,00,41,18.80
2016,08,14,00,42,18.80
2016,08,14,00,43,18.80
2016,08,14,00,44,18.70
2016,08,14,00,45,18.70
2016,08,14,00,46,18.70
2016,08,14,00,47,18.70
2016,08,14,00,48,18.70
2016,08,14,00,49,18.60
2016,08,14,00,50,18.60
2016,08,14,00,51,18.60
2016,08,14,00,52,18.60
2016,08,14,00,53,18.60
2016,08,14,00,54,18.60
2016,08,14,00,55,18.60
2016,08,14,00,56,18.60
2016,08,14,00,57,18.50
2016,08,14,00,58,18.50
2016,08,14,00,59,18.50
2016,08,14,01,00,18.50
2016,08,14,01,01,18.50
2016,08,14,01,02,18.50
2016,08,14,01,03,18.50
2016,08,14,01,04,18.50
2016,08,14,01,05,18.50
2016,08,14,01,06,18.40
2016,08,14,01,07,18.40
2016,08,14,01,08,18.40
2016,08,14,01,09,18.40
2016,08,14,01,10,18.40
2016,08,14,01,11,18.40
2016,08,14,01,12,18.40
2016,08,14,01,13,18.40
2016,08,14,01,14,18.40
2016,08,14,01,15,18.40
2016,08,14,01,16,18.40
2016,08,14,01,17,18.40
2016,08,14,01,18,18.40
2016,08,14,01,19,18.40
2016,08,14,01,20,18.40
2016,08,14,01,21,18.30
2016,08,14,01,22,18.30
2016,08,14,01,23,18.30
2016,08,14,01,24,18.30
2016,08,14,01,25,18.30
2016,08,14,01,26,18.30
2016,08,14,01,27,18.30
2016,08,14,01,28,18.30
2016,08,14,01,29,18.30
2016,08,14,01,30,18.40
2016,08,14,01,31,18.40
2016,08,14,01,32,18.30
2016,08,14,01,33,18.30
2016,08,14,01,34,18.30
2016,08,14,01,35,18.30
2016,08,14,01,36,18.30
2016,08,14,01,37,18.30
2016,08,14,01,38,18.30
2016,08,14,01,39,18.30
2016,08,14,01,40,18.30
2016,08,14,01,41,18.30
2016,08,14,01,42,18.30
2016,08,14,01,43,18.30
2016,08,14,01,44,18.30
2016,08,14,01,45,18.30
2016,08,14,01,46,18.30
2016,08,14,01,47,18.30
2016,08,14,01,48,18.30
2016,08,14,01,49,18.30
2016,08,14,01,50,18.30
2016,08,14,01,51,18.30
2016,08,14,01,52,18.30
2016,08,14,01,53,18.30
2016,08,14,01,54,18.30
2016,08,14,01,55,18.30
2016,08,14,01,56,18.30
2016,08,14,01,57,18.30
2016,08,14,01,58,18.30
2016,08,14,01,59,18.30
2016,08,14,02,00,18.30
2016,08,14,02,01,18.30
2016,08,14,02,02,18.20
2016,08,14,02,03,18.20
2016,08,14,02,04,18.20
2016,08,14,02,05,18.20
2016,08,14,02,06,18.20
2016,08,14,02,07,18.20
2016,08,14,02,08,18.10
2016,08,14,02,09,18.10
2016,08,14,02,10,18.10
2016,08,14,02,11,18.00
2016,08,14,02,12,18.10
2016,08,14,02,13,18.10
2016,08,14,02,14,18.10
2016,08,14,02,15,18.10
2016,08,14,02,16,18.00
2016,08,14,02,17,18.00
2016,08,14,02,18,18.00
2016,08,14,02,19,17.90
2016,08,14,02,20,18.00
2016,08,14,02,21,18.00
2016,08,14,02,22,18.00
2016,08,14,02,23,18.00
2016,08,14,02,24,17.90
2016,08,14,02,25,17.90
2016,08,14,02,26,17.90
2016,08,14,02,27,17.90
2016,08,14,02,28,17.90
2016,08,14,02,29,17.80
2016,08,14,02,30,17.70
2016,08,14,02,31,17.70
2016,08,14,02,32,17.60
2016,08,14,02,33,17.60
2016,08,14,02,34,17.50
2016,08,14,02,35,17.50
2016,08,14,02,36,17.40
2016,08,14,02,37,17.30
2016,08,14,02,38,17.30
2016,08,14,02,39,17.20
2016,08,14,02,40,17.20
2016,08,14,02,41,17.10
2016,08,14,02,42,17.10
2016,08,14,02,43,17.10
2016,08,14,02,44,17.00
2016,08,14,02,45,16.90
2016,08,14,02,46,16.90
2016,08,14,02,47,16.90
2016,08,14,02,48,16.80
2016,08,14,02,49,16.80
2016,08,14,02,50,16.70
2016,08,14,02,51,16.70
2016,08,14,02,52,16.70
2016,08,14,02,53,16.60
2016,08,14,02,54,16.60
2016,08,14,02,55,16.50
2016,08,14,02,56,16.40
2016,08,14,02,57,16.40
2016,08,14,02,58,16.30
2016,08,14,02,59,16.20
2016,08,14,03,00,16.20
2016,08,14,03,01,16.20
2016,08,14,03,02,16.10
2016,08,14,03,03,16.10
2016,08,14,03,04,16.00
2016,08,14,03,05,16.00
2016,08,14,03,06,15.90
2016,08,14,03,07,15.90
2016,08,14,03,08,15.90
2016,08,14,03,09,15.80
2016,08,14,03,10,15.80
2016,08,14,03,11,15.80
2016,08,14,03,12,15.80
2016,08,14,03,13,15.80
2016,08,14,03,14,15.80
2016,08,14,03,15,15.80
2016,08,14,03,16,15.80
2016,08,14,03,17,15.80
2016,08,14,03,18,15.80
2016,08,14,03,19,15.80
2016,08,14,03,20,15.80
2016,08,14,03,21,15.90
2016,08,14,03,22,15.90
2016,08,14,03,23,16.00
2016,08,14,03,24,16.00
2016,08,14,03,25,16.10
2016,08,14,03,26,16.10
2016,08,14,03,27,16.10
2016,08,14,03,28,16.00
2016,08,14,03,29,16.00
2016,08,14,03,30,16.00
2016,08,14,03,31,16.00
2016,08,14,03,32,15.90
2016,08,14,03,33,15.90
2016,08,14,03,34,15.90
2016,08,14,03,35,15.90
2016,08,14,03,36,15.90
2016,08,14,03,37,15.80
2016,08,14,03,38,15.80
2016,08,14,03,39,15.80
2016,08,14,03,40,15.80
2016,08,14,03,41,15.80
2016,08,14,03,42,15.80
2016,08,14,03,43,15.80
2016,08,14,03,44,15.80
2016,08,14,03,45,15.80
2016,08,14,03,46,15.80
2016,08,14,03,47,15.80
2016,08,14,03,48,15.70
2016,08,14,03,49,15.70
2016,08,14,03,50,15.70
2016,08,14,03,51,15.70
2016,08,14,03,52,15.70
2016,08,14,03,53,15.60
2016,08,14,03,54,15.60
2016,08,14,03,55,15.60
2016,08,14,03,56,15.50
2016,08,14,03,57,15.50
2016,08,14,03,58,15.40
2016,08,14,03,59,15.40
2016,08,14,04,00,15.40
2016,08,14,04,01,15.40
2016,08,14,04,02,15.30
2016,08,14,04,03,15.30
2016,08,14,04,04,15.30
2016,08,14,04,05,15.30
2016,08,14,04,06,15.30
2016,08,14,04,07,15.30
2016,08,14,04,08,15.30
2016,08,14,04,09,15.30
2016,08,14,04,10,15.30
2016,08,14,04,11,15.30
2016,08,14,04,12,15.30
2016,08,14,04,13,15.30
2016,08,14,04,14,15.40
2016,08,14,04,15,15.40
2016,08,14,04,16,15.40
2016,08,14,04,17,15.40
2016,08,14,04,18,15.40
2016,08,14,04,19,15.40
2016,08,14,04,20,15.40
2016,08,14,04,21,15.40
2016,08,14,04,22,15.40
2016,08,14,04,23,15.40
2016,08,14,04,24,15.40
2016,08,14,04,25,15.40
2016,08,14,04,26,15.40
2016,08,14,04,27,15.40
2016,08,14,04,28,15.30
2016,08,14,04,29,15.30
2016,08,14,04,30,15.30
2016,08,14,04,31,15.30
2016,08,14,04,32,15.30
2016,08,14,04,33,15.30
2016,08,14,04,34,15.30
2016,08,14,04,35,15.30
2016,08,14,04,36,15.30
2016,08,14,04,37,15.30
2016,08,14,04,38,15.30
2016,08,14,04,39,15.30
2016,08,14,04,40,15.20
2016,08,14,04,41,15.20
2016,08,14,04,42,15.20
2016,08,14,04,43,15.20
2016,08,14,04,44,15.20
2016,08,14,04,45,15.20
2016,08,14,04,46,15.20
2016,08,14,04,47,15.20
2016,08,14,04,48,15.10
2016,08,14,04,49,15.10
2016,08,14,04,50,15.10
2016,08,14,04,51,15.10
2016,08,14,04,52,15.10
2016,08,14,04,53,15.10
2016,08,14,04,54,15.10
2016,08,14,04,55,15.10
2016,08,14,04,56,15.00
2016,08,14,04,57,15.00
2016,08,14,04,58,15.00
2016,08,14,04,59,15.00
2016,08,14,05,00,15.00
2016,08,14,05,01,15.00
2016,08,14,05,02,15.00
2016,08,14,05,03,15.00
2016,08,14,05,04,14.90
2016,08,14,05,05,14.90
2016,08,14,05,06,14.90
2016,08,14,05,07,14.90
2016,08,14,05,08,14.90
2016,08,14,05,09,14.90
2016,08,14,05,10,14.90
2016,08,14,05,11,14.90
2016,08,14,05,12,14.90
2016,08,14,05,13,14.90
2016,08,14,05,14,14.90
2016,08,14,05,15,14.90
2016,08,14,05,16,14.80
2016,08,14,05,17,14.80
2016,08,14,05,18,14.80
2016,08,14,05,19,14.80
2016,08,14,05,20,14.80
2016,08,14,05,21,14.80
2016,08,14,05,22,14.80
2016,08,14,05,23,14.80
2016,08,14,05,24,14.80
2016,08,14,05,25,14.80
2016,08,14,05,26,14.70
2016,08,14,05,27,14.70
2016,08,14,05,28,14.70
2016,08,14,05,29,14.70
2016,08,14,05,30,14.70
2016,08,14,05,31,14.70
2016,08,14,05,32,14.70
2016,08,14,05,33,14.60
2016,08,14,05,34,14.60
2016,08,14,05,35,14.60
2016,08,14,05,36,14.60
2016,08,14,05,37,14.60
2016,08,14,05,38,14.60
2016,08,14,05,39,14.60
2016,08,14,05,40,14.50
2016,08,14,05,41,14.50
2016,08,14,05,42,14.50
2016,08,14,05,43,14.50
2016,08,14,05,44,14.50
2016,08,14,05,45,14.50
2016,08,14,05,46,14.40
2016,08,14,05,47,14.40
2016,08,14,05,48,14.40
2016,08,14,05,49,14.40
2016,08,14,05,50,14.40
2016,08,14,05,51,14.40
2016,08,14,05,52,14.40
2016,08,14,05,53,14.40
2016,08,14,05,54,14.40
2016,08,14,05,55,14.40
2016,08,14,05,56,14.40
2016,08,14,05,57,14.30
2016,08,14,05,58,14.30
2016,08,14,05,59,14.30
2016,08,14,06,00,14.30
2016,08,14,06,01,14.30
2016,08,14,06,02,14.30
2016,08,14,06,03,14.30
2016,08,14,06,04,14.30
2016,08,14,06,05,14.30
2016,08,14,06,06,14.20
2016,08,14,06,07,14.20
2016,08,14,06,08,14.20
2016,08,14,06,09,14.20
2016,08,14,06,10,14.20
2016,08,14,06,11,14.20
2016,08,14,06,12,14.20
2016,08,14,06,13,14.20
2016,08,14,06,14,14.20
2016,08,14,06,15,14.20
2016,08,14,06,16,14.20
2016,08,14,06,17,14.10
2016,08,14,06,18,14.10
2016,08,14,06,19,14.10
2016,08,14,06,20,14.10
2016,08,14,06,21,14.10
2016,08,14,06,22,14.10
2016,08,14,06,23,14.10
2016,08,14,06,24,14.10
2016,08,14,06,25,14.10
2016,08,14,06,26,14.10
2016,08,14,06,27,14.10
2016,08,14,06,28,14.10
2016,08,14,06,29,14.10
2016,08,14,06,30,14.10
2016,08,14,06,31,14.10
2016,08,14,06,32,14.10
2016,08,14,06,33,14.10
2016,08,14,06,34,14.00
2016,08,14,06,35,14.00
2016,08,14,06,36,14.00
2016,08,14,06,37,14.00
2016,08,14,06,38,13.90
2016,08,14,06,39,13.90
2016,08,14,06,40,13.90
2016,08,14,06,41,13.90
2016,08,14,06,42,13.90
2016,08,14,06,43,13.90
2016,08,14,06,44,13.90
2016,08,14,06,45,13.90
2016,08,14,06,46,13.90
2016,08,14,06,47,13.90
2016,08,14,06,48,14.00
2016,08,14,06,49,14.00
2016,08,14,06,50,14.00
2016,08,14,06,51,14.00
2016,08,14,06,52,14.00
2016,08,14,06,53,13.90
2016,08,14,06,54,13.90
2016,08,14,06,55,13.90
2016,08,14,06,56,13.90
2016,08,14,06,57,13.90
2016,08,14,06,58,13.90
2016,08,14,06,59,13.90
2016,08,14,07,00,14.00
2016,08,14,07,01,14.00
2016,08,14,07,02,14.00
2016,08,14,07,03,14.00
2016,08,14,07,04,14.00
2016,08,14,07,05,14.00
2016,08,14,07,06,14.00
2016,08,14,07,07,14.00
2016,08,14,07,08,13.90
2016,08,14,07,09,13.90
2016,08,14,07,10,13.90
2016,08,14,07,11,13.90
2016,08,14,07,12,13.80
2016,08,14,07,13,13.80
2016,08,14,07,14,13.80
2016,08,14,07,15,13.80
2016,08,14,07,16,13.80
2016,08,14,07,17,13.80
2016,08,14,07,18,13.80
2016,08,14,07,19,13.80
2016,08,14,07,20,13.80
2016,08,14,07,21,13.80
2016,08,14,07,22,13.80
2016,08,14,07,23,13.80
2016,08,14,07,24,13.70
2016,08,14,07,25,13.70
2016,08,14,07,26,13.70
2016,08,14,07,27,13.70
2016,08,14,07,28,13.70
2016,08,14,07,29,13.70
2016,08,14,07,30,13.70
2016,08,14,07,31,13.70
2016,08,14,07,32,13.70
2016,08,14,07,33,13.70
2016,08,14,07,34,13.70
2016,08,14,07,35,13.70
2016,08,14,07,36,13.70
2016,08,14,07,37,13.70
2016,08,14,07,38,13.70
2016,08,14,07,39,13.70
2016,08,14,07,40,13.70
2016,08,14,07,41,13.70
2016,08,14,07,42,13.70
2016,08,14,07,43,13.70
2016,08,14,07,44,13.70
2016,08,14,07,45,13.70
2016,08,14,07,46,13.70
2016,08,14,07,47,13.70
2016,08,14,07,48,13.70
2016,08,14,07,49,13.70
2016,08,14,07,50,13.70
2016,08,14,07,51,13.70
2016,08,14,07,52,13.70
2016,08,14,07,53,13.70
2016,08,14,07,54,13.70
2016,08,14,07,55,13.70
2016,08,14,07,56,13.70
2016,08,14,07,57,13.70
2016,08,14,07,58,13.70
2016,08,14,07,59,13.70
2016,08,14,08,00,13.70
2016,08,14,08,01,13.70
2016,08,14,08,02,13.70
2016,08,14,08,03,13.70
2016,08,14,08,04,13.70
2016,08,14,08,05,13.70
2016,08,14,08,06,13.70
2016,08,14,08,07,13.70
2016,08,14,08,08,13.70
2016,08,14,08,09,13.70
2016,08,14,08,10,13.70
2016,08,14,08,11,13.70
2016,08,14,08,12,13.80
2016,08,14,08,13,13.80
2016,08,14,08,14,13.80
2016,08,14,08,15,13.80
2016,08,14,08,16,13.80
2016,08,14,08,17,13.80
2016,08,14,08,18,13.90
2016,08,14,08,19,13.90
2016,08,14,08,20,13.90
2016,08,14,08,21,13.90
2016,08,14,08,22,14.00
2016,08,14,08,23,14.00
2016,08,14,08,24,14.00
2016,08,14,08,25,14.10
2016,08,14,08,26,14.10
2016,08,14,08,27,14.10
2016,08,14,08,28,14.10
2016,08,14,08,29,14.20
2016,08,14,08,30,14.20
2016,08,14,08,31,14.20
2016,08,14,08,32,14.20
2016,08,14,08,33,14.30
2016,08,14,08,34,14.30
2016,08,14,08,35,14.40
2016,08,14,08,36,14.40
2016,08,14,08,37,14.40
2016,08,14,08,38,14.50
2016,08,14,08,39,14.60
2016,08,14,08,40,14.60
2016,08,14,08,41,14.60
2016,08,14,08,42,14.70
2016,08,14,08,43,14.70
2016,08,14,08,44,14.70
2016,08,14,08,45,14.80
2016,08,14,08,46,14.80
2016,08,14,08,47,14.90
2016,08,14,08,48,14.90
2016,08,14,08,49,15.00
2016,08,14,08,50,15.00
2016,08,14,08,51,15.10
2016,08,14,08,52,15.20
2016,08,14,08,53,15.20
2016,08,14,08,54,15.30
2016,08,14,08,55,15.30
2016,08,14,08,56,15.40
2016,08,14,08,57,15.50
2016,08,14,08,58,15.50
2016,08,14,08,59,15.60
2016,08,14,09,00,15.60
2016,08,14,09,01,15.70
2016,08,14,09,02,15.70
2016,08,14,09,03,15.80
2016,08,14,09,04,15.80
2016,08,14,09,05,15.90
2016,08,14,09,06,16.00
2016,08,14,09,07,16.10
2016,08,14,09,08,16.20
2016,08,14,09,09,16.30
2016,08,14,09,10,16.40
2016,08,14,09,11,16.50
2016,08,14,09,12,16.50
2016,08,14,09,13,16.60
2016,08,14,09,14,16.60
2016,08,14,09,15,16.70
2016,08,14,09,16,16.70
2016,08,14,09,17,16.80
2016,08,14,09,18,16.90
2016,08,14,09,19,17.00
2016,08,14,09,20,17.10
2016,08,14,09,21,17.10
2016,08,14,09,22,17.20
2016,08,14,09,23,17.20
2016,08,14,09,24,17.20
2016,08,14,09,25,17.20
2016,08,14,09,26,17.20
2016,08,14,09,27,17.20
2016,08,14,09,28,17.30
2016,08,14,09,29,17.30
2016,08,14,09,30,17.30
2016,08,14,09,31,17.30
2016,08,14,09,32,17.40
2016,08,14,09,33,17.40
2016,08,14,09,34,17.50
2016,08,14,09,35,17.50
2016,08,14,09,36,17.40
2016,08,14,09,37,17.30
2016,08,14,09,38,17.20
2016,08,14,09,39,17.20
2016,08,14,09,40,17.20
2016,08,14,09,41,17.10
2016,08,14,09,42,17.10
2016,08,14,09,43,17.10
2016,08,14,09,44,17.10
2016,08,14,09,45,17.00
2016,08,14,09,46,17.00
2016,08,14,09,47,17.10
2016,08,14,09,48,17.10
2016,08,14,09,49,17.10
2016,08,14,09,50,17.10
2016,08,14,09,51,17.20
2016,08,14,09,52,17.20
2016,08,14,09,53,17.20
2016,08,14,09,54,17.30
2016,08,14,09,55,17.30
2016,08,14,09,56,17.40
2016,08,14,09,57,17.40
2016,08,14,09,58,17.50
2016,08,14,09,59,17.60
2016,08,14,10,00,17.60
2016,08,14,10,01,17.70
2016,08,14,10,02,17.80
2016,08,14,10,03,17.90
2016,08,14,10,04,17.90
2016,08,14,10,05,18.00
2016,08,14,10,06,18.10
2016,08,14,10,07,18.20
2016,08,14,10,08,18.20
2016,08,14,10,09,18.30
2016,08,14,10,10,18.40
2016,08,14,10,11,18.50
2016,08,14,10,12,18.50
2016,08,14,10,13,18.60
2016,08,14,10,14,18.70
2016,08,14,10,15,18.80
2016,08,14,10,16,18.80
2016,08,14,10,17,18.80
2016,08,14,10,18,18.90
2016,08,14,10,19,19.00
2016,08,14,10,20,19.00
2016,08,14,10,21,19.10
2016,08,14,10,22,19.20
2016,08,14,10,23,19.20
2016,08,14,10,24,19.30
2016,08,14,10,25,19.30
2016,08,14,10,26,19.40
2016,08,14,10,27,19.60
2016,08,14,10,28,19.70
2016,08,14,10,29,19.80
2016,08,14,10,30,19.90
2016,08,14,10,31,19.90
2016,08,14,10,32,20.00
2016,08,14,10,33,20.10
2016,08,14,10,34,20.20
2016,08,14,10,35,20.30
2016,08,14,10,36,20.40
2016,08,14,10,37,20.50
2016,08,14,10,38,20.60
2016,08,14,10,39,20.60
2016,08,14,10,40,20.60
2016,08,14,10,41,20.70
2016,08,14,10,42,20.80
2016,08,14,10,43,20.80
2016,08,14,10,44,20.90
2016,08,14,10,45,20.90
2016,08,14,10,46,21.00
2016,08,14,10,47,21.00
2016,08,14,10,48,21.10
2016,08,14,10,49,21.10
2016,08,14,10,50,21.10
2016,08,14,10,51,21.10
2016,08,14,10,52,21.20
2016,08,14,10,53,21.20
2016,08,14,10,54,21.20
2016,08,14,10,55,21.30
2016,08,14,10,56,21.30
2016,08,14,10,57,21.40
2016,08,14,10,58,21.40
2016,08,14,10,59,21.50
2016,08,14,11,00,21.60
2016,08,14,11,01,21.60
2016,08,14,11,02,21.60
2016,08,14,11,03,21.60
2016,08,14,11,04,21.60
2016,08,14,11,05,21.60
2016,08,14,11,06,21.60
2016,08,14,11,07,21.60
2016,08,14,11,08,21.60
2016,08,14,11,09,21.60
2016,08,14,11,10,21.70
2016,08,14,11,11,21.70
2016,08,14,11,12,21.70
2016,08,14,11,13,21.80
2016,08,14,11,14,21.80
2016,08,14,11,15,21.80
2016,08,14,11,16,21.80
2016,08,14,11,17,21.90
2016,08,14,11,18,22.00
2016,08,14,11,19,22.10
2016,08,14,11,20,22.20
2016,08,14,11,21,22.20
2016,08,14,11,22,22.30
2016,08,14,11,23,22.30
2016,08,14,11,24,22.40
2016,08,14,11,25,22.50
2016,08,14,11,26,22.50
2016,08,14,11,27,22.60
2016,08,14,11,28,22.70
2016,08,14,11,29,22.70
2016,08,14,11,30,22.80
2016,08,14,11,31,22.80
2016,08,14,11,32,22.80
2016,08,14,11,33,22.80
2016,08,14,11,34,22.80
2016,08,14,11,35,22.90
2016,08,14,11,36,23.00
2016,08,14,11,37,23.10
2016,08,14,11,38,23.10
2016,08,14,11,39,23.20
2016,08,14,11,40,23.30
2016,08,14,11,41,23.40
2016,08,14,11,42,23.40
2016,08,14,11,43,23.50
2016,08,14,11,44,23.50
2016,08,14,11,45,23.60
2016,08,14,11,46,23.60
2016,08,14,11,47,23.60
2016,08,14,11,48,23.60
2016,08,14,11,49,23.70
2016,08,14,11,50,23.70
2016,08,14,11,51,23.70
2016,08,14,11,52,23.70
2016,08,14,11,53,23.70
2016,08,14,11,54,23.80
2016,08,14,11,55,23.80
2016,08,14,11,56,23.80
2016,08,14,11,57,23.80
2016,08,14,11,58,23.70
2016,08,14,11,59,23.70
2016,08,14,12,00,23.70
2016,08,14,12,01,23.60
2016,08,14,12,02,23.60
2016,08,14,12,03,23.60
2016,08,14,12,04,23.60
2016,08,14,12,05,23.60
2016,08,14,12,06,23.60
2016,08,14,12,07,23.60
2016,08,14,12,08,23.60
2016,08,14,12,09,23.60
2016,08,14,12,10,23.60
2016,08,14,12,11,23.70
2016,08,14,12,12,23.80
2016,08,14,12,13,23.80
2016,08,14,12,14,23.90
2016,08,14,12,15,23.90
2016,08,14,12,16,24.00
2016,08,14,12,17,24.00
2016,08,14,12,18,24.00
2016,08,14,12,19,24.10
2016,08,14,12,20,24.10
2016,08,14,12,21,24.10
2016,08,14,12,22,24.10
2016,08,14,12,23,24.20
2016,08,14,12,24,24.20
2016,08,14,12,25,24.20
2016,08,14,12,26,24.20
2016,08,14,12,27,24.30
2016,08,14,12,28,24.30
2016,08,14,12,29,24.30
2016,08,14,12,30,24.30
2016,08,14,12,31,24.20
2016,08,14,12,32,24.20
2016,08,14,12,33,24.20
2016,08,14,12,34,24.20
2016,08,14,12,35,24.20
2016,08,14,12,36,24.20
2016,08,14,12,37,24.10
2016,08,14,12,38,24.10
2016,08,14,12,39,24.10
2016,08,14,12,40,24.10
2016,08,14,12,41,24.10
2016,08,14,12,42,24.10
2016,08,14,12,43,24.10
2016,08,14,12,44,24.10
2016,08,14,12,45,24.10
2016,08,14,12,46,24.20
2016,08,14,12,47,24.20
2016,08,14,12,48,24.30
2016,08,14,12,49,24.40
2016,08,14,12,50,24.50
2016,08,14,12,51,24.50
2016,08,14,12,52,24.50
2016,08,14,12,53,24.50
2016,08,14,12,54,24.60
2016,08,14,12,55,24.60
2016,08,14,12,56,24.60
2016,08,14,12,57,24.60
2016,08,14,12,58,24.60
2016,08,14,12,59,24.60
2016,08,14,13,00,24.60
2016,08,14,13,01,24.60
2016,08,14,13,02,24.50
2016,08,14,13,03,24.50
2016,08,14,13,04,24.40
2016,08,14,13,05,24.40
2016,08,14,13,06,24.40
2016,08,14,13,07,24.40
2016,08,14,13,08,24.40
2016,08,14,13,09,24.40
2016,08,14,13,10,24.40
2016,08,14,13,11,24.30
2016,08,14,13,12,24.30
2016,08,14,13,13,24.30
2016,08,14,13,14,24.30
2016,08,14,13,15,24.30
2016,08,14,13,16,24.30
2016,08,14,13,17,24.30
2016,08,14,13,18,24.30
2016,08,14,13,19,24.30
2016,08,14,13,20,24.30
2016,08,14,13,21,24.30
2016,08,14,13,22,24.30
2016,08,14,13,23,24.30
2016,08,14,13,24,24.30
2016,08,14,13,25,24.20
2016,08,14,13,26,24.20
2016,08,14,13,27,24.20
2016,08,14,13,28,24.20
2016,08,14,13,29,24.20
2016,08,14,13,30,24.20
2016,08,14,13,31,24.20
2016,08,14,13,32,24.20
2016,08,14,13,33,24.20
2016,08,14,13,34,24.20
2016,08,14,13,35,24.30
2016,08,14,13,36,24.30
2016,08,14,13,37,24.30
2016,08,14,13,38,24.30
2016,08,14,13,39,24.30
2016,08,14,13,40,24.30
2016,08,14,13,41,24.40
2016,08,14,13,42,24.50
2016,08,14,13,43,24.60
2016,08,14,13,44,24.60
2016,08,14,13,45,24.60
2016,08,14,13,46,24.70
2016,08,14,13,47,24.60
2016,08,14,13,48,24.60
2016,08,14,13,49,24.60
2016,08,14,13,50,24.50
2016,08,14,13,51,24.50
2016,08,14,13,52,24.50
2016,08,14,13,53,24.40
2016,08,14,13,54,24.40
2016,08,14,13,55,24.40
2016,08,14,13,56,24.40
2016,08,14,13,57,24.40
2016,08,14,13,58,24.40
2016,08,14,13,59,24.50
2016,08,14,14,00,24.60
2016,08,14,14,01,24.60
2016,08,14,14,02,24.70
2016,08,14,14,03,24.70
2016,08,14,14,04,24.70
2016,08,14,14,05,24.70
2016,08,14,14,06,24.60
2016,08,14,14,07,24.60
2016,08,14,14,08,24.50
2016,08,14,14,09,24.40
2016,08,14,14,10,24.40
2016,08,14,14,11,24.30
2016,08,14,14,12,24.30
2016,08,14,14,13,24.20
2016,08,14,14,14,24.20
2016,08,14,14,15,24.20
2016,08,14,14,16,24.20
2016,08,14,14,17,24.30
2016,08,14,14,18,24.30
2016,08,14,14,19,24.30
2016,08,14,14,20,24.20
2016,08,14,14,21,24.20
2016,08,14,14,22,24.20
2016,08,14,14,23,24.20
2016,08,14,14,24,24.20
2016,08,14,14,25,24.10
2016,08,14,14,26,24.10
2016,08,14,14,27,24.10
2016,08,14,14,28,24.10
2016,08,14,14,29,24.20
2016,08,14,14,30,24.20
2016,08,14,14,31,24.30
2016,08,14,14,32,24.30
2016,08,14,14,33,24.30
2016,08,14,14,34,24.30
2016,08,14,14,35,24.30
2016,08,14,14,36,24.30
2016,08,14,14,37,24.20
2016,08,14,14,38,24.20
2016,08,14,14,39,24.20
2016,08,14,14,40,24.10
2016,08,14,14,41,24.10
2016,08,14,14,42,24.10
2016,08,14,14,43,24.00
2016,08,14,14,44,24.00
2016,08,14,14,45,23.90
2016,08,14,14,46,23.90
2016,08,14,14,47,23.80
2016,08,14,14,48,23.80
2016,08,14,14,49,23.70
2016,08,14,14,50,23.70
2016,08,14,14,51,23.70
2016,08,14,14,52,23.70
2016,08,14,14,53,23.70
2016,08,14,14,54,23.80
2016,08,14,14,55,23.80
2016,08,14,14,56,23.80
2016,08,14,14,57,23.80
2016,08,14,14,58,23.80
2016,08,14,14,59,23.80
2016,08,14,15,00,23.80
2016,08,14,15,01,23.80
2016,08,14,15,02,23.70
2016,08,14,15,03,23.70
2016,08,14,15,04,23.80
2016,08,14,15,05,23.80
2016,08,14,15,06,23.80
2016,08,14,15,07,23.70
2016,08,14,15,08,23.70
2016,08,14,15,09,23.70
2016,08,14,15,10,23.70
2016,08,14,15,11,23.70
2016,08,14,15,12,23.70
2016,08,14,15,13,23.70
2016,08,14,15,14,23.70
2016,08,14,15,15,23.70
2016,08,14,15,16,23.70
2016,08,14,15,17,23.70
2016,08,14,15,18,23.70
2016,08,14,15,19,23.70
2016,08,14,15,20,23.60
2016,08,14,15,21,23.60
2016,08,14,15,22,23.50
2016,08,14,15,23,23.50
2016,08,14,15,24,23.50
2016,08,14,15,25,23.40
2016,08,14,15,26,23.40
2016,08,14,15,27,23.40
2016,08,14,15,28,23.40
2016,08,14,15,29,23.40
2016,08,14,15,30,23.30
2016,08,14,15,31,23.30
2016,08,14,15,32,23.30
2016,08,14,15,33,23.30
2016,08,14,15,34,23.40
2016,08,14,15,35,23.40
2016,08,14,15,36,23.50
2016,08,14,15,37,23.50
2016,08,14,15,38,23.50
2016,08,14,15,39,23.50
2016,08,14,15,40,23.50
2016,08,14,15,41,23.50
2016,08,14,15,42,23.40
2016,08,14,15,43,23.40
2016,08,14,15,44,23.50
2016,08,14,15,45,23.50
2016,08,14,15,46,23.40
2016,08,14,15,47,23.40
2016,08,14,15,48,23.40
2016,08,14,15,49,23.40
2016,08,14,15,50,23.40
2016,08,14,15,51,23.30
2016,08,14,15,52,23.30
2016,08,14,15,53,23.30
2016,08,14,15,54,23.30
2016,08,14,15,55,23.30
2016,08,14,15,56,23.30
2016,08,14,15,57,23.30
2016,08,14,15,58,23.30
2016,08,14,15,59,23.40
2016,08,14,16,00,23.40
2016,08,14,16,01,23.40
2016,08,14,16,02,23.40
2016,08,14,16,03,23.30
2016,08,14,16,04,23.30
2016,08,14,16,05,23.30
2016,08,14,16,06,23.30
2016,08,14,16,07,23.30
2016,08,14,16,08,23.30
2016,08,14,16,09,23.30
2016,08,14,16,10,23.30
2016,08,14,16,11,23.30
2016,08,14,16,12,23.30
2016,08,14,16,13,23.30
2016,08,14,16,14,23.30
2016,08,14,16,15,23.30
2016,08,14,16,16,23.30
2016,08,14,16,17,23.40
2016,08,14,16,18,23.40
2016,08,14,16,19,23.50
2016,08,14,16,20,23.50
2016,08,14,16,21,23.60
2016,08,14,16,22,23.50
2016,08,14,16,23,23.50
2016,08,14,16,24,23.40
2016,08,14,16,25,23.40
2016,08,14,16,26,23.30
2016,08,14,16,27,23.30
2016,08,14,16,28,23.30
2016,08,14,16,29,23.30
2016,08,14,16,30,23.30
2016,08,14,16,31,23.20
2016,08,14,16,32,23.30
2016,08,14,16,33,23.30
2016,08,14,16,34,23.30
2016,08,14,16,35,23.30
2016,08,14,16,36,23.30
2016,08,14,16,37,23.30
2016,08,14,16,38,23.30
2016,08,14,16,39,23.20
2016,08,14,16,40,23.20
2016,08,14,16,41,23.20
2016,08,14,16,42,23.20
2016,08,14,16,43,23.20
2016,08,14,16,44,23.10
2016,08,14,16,45,23.10
2016,08,14,16,46,23.00
2016,08,14,16,47,23.00
2016,08,14,16,48,22.90
2016,08,14,16,49,22.90
2016,08,14,16,50,22.90
2016,08,14,16,51,22.90
2016,08,14,16,52,22.90
2016,08,14,16,53,22.90
2016,08,14,16,54,22.80
2016,08,14,16,55,22.80
2016,08,14,16,56,22.90
2016,08,14,16,57,22.90
2016,08,14,16,58,22.90
2016,08,14,16,59,22.90
2016,08,14,17,00,22.90
2016,08,14,17,01,22.90
2016,08,14,17,02,22.90
2016,08,14,17,03,22.90
2016,08,14,17,04,22.90
2016,08,14,17,05,23.00
2016,08,14,17,06,23.00
2016,08,14,17,07,23.00
2016,08,14,17,08,23.00
2016,08,14,17,09,23.00
2016,08,14,17,10,23.00
2016,08,14,17,11,23.00
2016,08,14,17,12,23.00
2016,08,14,17,13,23.00
2016,08,14,17,14,23.00
2016,08,14,17,15,23.00
2016,08,14,17,16,23.00
2016,08,14,17,17,23.00
2016,08,14,17,18,22.90
2016,08,14,17,19,22.90